Time,TemperatureF,DewpointF,PressureIn,WindDirection,WindDirectionDegrees,WindSpeedMPH,WindSpeedGustMPH,Humidity,HourlyPrecipIn,Conditions,Clouds,dailyrainin,SoftwareType,DateUTC
2013-02-21 00:03:00,24.4,17.0,30.13,East,88,18.0,-999.0,72,-99.99,,,0.00,weatherlink.com 1.10,2013-02-21 06:03:00,
2013-02-21 00:19:00,24.4,17.0,30.15,East,88,12.0,-999.0,72,-99.99,,,0.00,weatherlink.com 1.10,2013-02-21 06:19:00,
2013-02-21 00:33:00,24.6,17.0,30.12,East,88,11.0,-999.0,72,-99.99,,,0.00,weatherlink.com 1.10,2013-02-21 06:33:00,
2013-02-21 00:50:00,24.7,17.0,30.11,East,88,14.0,-999.0,72,-99.99,,,0.00,weatherlink.com 1.10,2013-02-21 06:50:00,
2013-02-21 01:03:00,24.5,17.0,30.11,East,88,13.0,-999.0,72,-99.99,,,0.00,weatherlink.com 1.10,2013-02-21 07:03:00,
2013-02-21 01:18:00,24.4,17.0,30.11,East,88,12.0,-999.0,72,-99.99,,,0.00,weatherlink.com 1.10,2013-02-21 07:18:00,
2013-02-21 01:33:00,24.4,17.0,30.10,East,88,7.0,-999.0,72,-99.99,,,0.00,weatherlink.com 1.10,2013-02-21 07:33:00,
2013-02-21 01:48:00,24.5,17.0,30.09,East,88,14.0,-999.0,72,-99.99,,,0.00,weatherlink.com 1.10,2013-02-21 07:48:00,
2013-02-21 02:03:00,24.6,17.0,30.09,East,88,6.0,-999.0,72,-99.99,,,0.00,weatherlink.com 1.10,2013-02-21 08:03:00,
2013-02-21 02:18:00,24.6,17.0,30.08,East,88,13.0,-999.0,72,-99.99,,,0.00,weatherlink.com 1.10,2013-02-21 08:18:00,
2013-02-21 02:34:00,24.6,17.0,30.07,East,88,11.0,-999.0,72,-99.99,,,0.00,weatherlink.com 1.10,2013-02-21 08:34:00,
2013-02-21 02:49:00,24.8,17.0,30.06,East,88,0.0,-999.0,72,-99.99,,,0.00,weatherlink.com 1.10,2013-02-21 08:49:00,
2013-02-21 03:03:00,24.8,17.0,30.07,East,88,0.0,-999.0,71,-99.99,,,0.00,weatherlink.com 1.10,2013-02-21 09:03:00,
2013-02-21 03:19:00,25.0,17.0,30.05,East,88,0.0,-999.0,71,-99.99,,,0.00,weatherlink.com 1.10,2013-02-21 09:19:00,
2013-02-21 03:34:00,25.0,17.0,30.02,East,88,0.0,-999.0,72,-99.99,,,0.00,weatherlink.com 1.10,2013-02-21 09:34:00,
2013-02-21 03:48:00,25.0,17.0,30.03,East,88,0.0,-999.0,72,-99.99,,,0.00,weatherlink.com 1.10,2013-02-21 09:48:00,
2013-02-21 04:03:00,25.0,17.0,30.04,East,88,0.0,-999.0,71,-99.99,,,0.00,weatherlink.com 1.10,2013-02-21 10:03:00,
2013-02-21 04:19:00,25.1,17.0,30.02,East,88,0.0,-999.0,71,-99.99,,,0.00,weatherlink.com 1.10,2013-02-21 10:19:00,
2013-02-21 04:33:00,25.2,17.0,30.01,East,88,0.0,-999.0,71,-99.99,,,0.00,weatherlink.com 1.10,2013-02-21 10:33:00,
2013-02-21 04:48:00,25.2,17.0,30.01,East,88,0.0,-999.0,71,-99.99,,,0.00,weatherlink.com 1.10,2013-02-21 10:48:00,
2013-02-21 05:03:00,25.2,17.0,29.99,East,88,0.0,-999.0,71,-99.99,,,0.00,weatherlink.com 1.10,2013-02-21 11:03:00,
2013-02-21 05:19:00,25.2,17.0,30.00,East,88,0.0,-999.0,71,-99.99,,,0.00,weatherlink.com 1.10,2013-02-21 11:19:00,
2013-02-21 05:34:00,25.0,17.0,30.00,East,88,0.0,-999.0,72,-99.99,,,0.00,weatherlink.com 1.10,2013-02-21 11:34:00,
2013-02-21 05:48:00,25.6,17.0,29.97,East,88,0.0,-999.0,71,-99.99,,,0.00,weatherlink.com 1.10,2013-02-21 11:48:00,
2013-02-21 06:03:00,25.4,17.0,30.00,East,88,0.0,-999.0,71,-99.99,,,0.00,weatherlink.com 1.10,2013-02-21 12:03:00,
2013-02-21 06:18:00,25.3,17.0,29.98,East,88,0.0,-999.0,71,-99.99,,,0.00,weatherlink.com 1.10,2013-02-21 12:18:00,
2013-02-21 06:33:00,25.2,17.0,29.95,East,88,0.0,-999.0,71,-99.99,,,0.00,weatherlink.com 1.10,2013-02-21 12:33:00,
2013-02-21 06:48:00,25.5,17.0,29.91,East,88,0.0,-999.0,71,-99.99,,,0.00,weatherlink.com 1.10,2013-02-21 12:48:00,
2013-02-21 07:03:00,25.4,17.0,29.93,East,88,0.0,-999.0,71,-99.99,,,0.00,weatherlink.com 1.10,2013-02-21 13:03:00,
2013-02-21 07:19:00,25.3,17.0,29.94,East,88,0.0,-999.0,71,-99.99,,,0.00,weatherlink.com 1.10,2013-02-21 13:19:00,
2013-02-21 07:33:00,25.4,17.0,29.92,East,88,0.0,-999.0,71,-99.99,,,0.00,weatherlink.com 1.10,2013-02-21 13:33:00,
2013-02-21 07:48:00,25.4,17.0,29.93,East,88,0.0,-999.0,71,-99.99,,,0.00,weatherlink.com 1.10,2013-02-21 13:48:00,
2013-02-21 08:03:00,25.5,17.0,29.94,East,88,0.0,-999.0,71,-99.99,,,0.00,weatherlink.com 1.10,2013-02-21 14:03:00,
2013-02-21 08:18:00,27.0,18.0,29.89,East,88,0.0,-999.0,70,-99.99,,,0.00,weatherlink.com 1.10,2013-02-21 14:18:00,
2013-02-21 08:33:00,26.0,18.0,29.87,East,88,0.0,-999.0,71,-99.99,,,0.00,weatherlink.com 1.10,2013-02-21 14:33:00,
2013-02-21 08:48:00,25.8,18.0,29.90,East,88,0.0,-999.0,71,-99.99,,,0.00,weatherlink.com 1.10,2013-02-21 14:48:00,
2013-02-21 09:03:00,25.9,18.0,29.90,East,88,0.0,-999.0,71,-99.99,,,0.00,weatherlink.com 1.10,2013-02-21 15:03:00,
2013-02-21 09:18:00,27.6,19.0,29.91,East,88,0.0,-999.0,70,-99.99,,,0.00,weatherlink.com 1.10,2013-02-21 15:18:00,
2013-02-21 09:33:00,27.9,19.0,29.84,East,88,0.0,-999.0,70,-99.99,,,0.00,weatherlink.com 1.10,2013-02-21 15:33:00,
2013-02-21 09:48:00,27.2,19.0,29.85,East,88,0.0,-999.0,71,-99.99,,,0.00,weatherlink.com 1.10,2013-02-21 15:48:00,
2013-02-21 10:03:00,27.1,19.0,29.86,East,88,0.0,-999.0,70,-99.99,,,0.00,weatherlink.com 1.10,2013-02-21 16:03:00,
2013-02-21 10:18:00,27.7,19.0,29.84,East,88,0.0,-999.0,70,-99.99,,,0.00,weatherlink.com 1.10,2013-02-21 16:18:00,
2013-02-21 10:34:00,27.8,19.0,29.86,East,88,0.0,-999.0,70,-99.99,,,0.00,weatherlink.com 1.10,2013-02-21 16:34:00,
2013-02-21 10:48:00,28.0,19.0,29.85,East,88,0.0,-999.0,70,-99.99,,,0.00,weatherlink.com 1.10,2013-02-21 16:48:00,
2013-02-21 11:04:00,28.2,20.0,29.87,East,88,0.0,-999.0,70,-99.99,,,0.00,weatherlink.com 1.10,2013-02-21 17:04:00,
2013-02-21 11:18:00,28.5,20.0,29.91,East,88,0.0,-999.0,70,-99.99,,,0.00,weatherlink.com 1.10,2013-02-21 17:18:00,
2013-02-21 11:34:00,28.4,20.0,29.91,East,88,0.0,-999.0,70,-99.99,,,0.00,weatherlink.com 1.10,2013-02-21 17:34:00,
2013-02-21 11:48:00,28.6,20.0,29.91,East,88,0.0,-999.0,70,-99.99,,,0.00,weatherlink.com 1.10,2013-02-21 17:48:00,
2013-02-21 12:03:00,28.6,20.0,29.88,East,88,0.0,-999.0,70,-99.99,,,0.00,weatherlink.com 1.10,2013-02-21 18:03:00,
2013-02-21 12:18:00,28.3,20.0,29.86,East,88,0.0,-999.0,70,-99.99,,,0.00,weatherlink.com 1.10,2013-02-21 18:18:00,
2013-02-21 12:33:00,28.2,20.0,29.85,East,88,0.0,-999.0,70,-99.99,,,0.00,weatherlink.com 1.10,2013-02-21 18:33:00,
2013-02-21 12:48:00,28.1,19.0,29.85,East,88,0.0,-999.0,70,-99.99,,,0.00,weatherlink.com 1.10,2013-02-21 18:48:00,
2013-02-21 13:03:00,28.2,20.0,29.84,East,88,0.0,-999.0,70,-99.99,,,0.00,weatherlink.com 1.10,2013-02-21 19:03:00,
2013-02-21 13:18:00,28.3,20.0,29.82,East,88,0.0,-999.0,70,-99.99,,,0.00,weatherlink.com 1.10,2013-02-21 19:18:00,
2013-02-21 13:33:00,28.4,20.0,29.81,East,88,0.0,-999.0,70,-99.99,,,0.00,weatherlink.com 1.10,2013-02-21 19:33:00,
2013-02-21 13:48:00,28.5,20.0,29.80,East,88,0.0,-999.0,70,-99.99,,,0.00,weatherlink.com 1.10,2013-02-21 19:48:00,
2013-02-21 14:03:00,28.5,20.0,29.80,East,88,0.0,-999.0,70,-99.99,,,0.00,weatherlink.com 1.10,2013-02-21 20:03:00,
2013-02-21 14:19:00,28.7,20.0,29.81,East,88,0.0,-999.0,70,-99.99,,,0.00,weatherlink.com 1.10,2013-02-21 20:19:00,
2013-02-21 14:33:00,28.8,20.0,29.80,East,88,0.0,-999.0,70,-99.99,,,0.00,weatherlink.com 1.10,2013-02-21 20:33:00,
2013-02-21 14:48:00,28.9,20.0,29.79,East,88,0.0,-999.0,70,-99.99,,,0.00,weatherlink.com 1.10,2013-02-21 20:48:00,
2013-02-21 15:03:00,29.0,20.0,29.79,East,88,0.0,-999.0,70,-99.99,,,0.00,weatherlink.com 1.10,2013-02-21 21:03:00,
2013-02-21 15:18:00,28.9,20.0,29.80,East,88,0.0,-999.0,70,-99.99,,,0.00,weatherlink.com 1.10,2013-02-21 21:18:00,
2013-02-21 15:33:00,29.0,20.0,29.81,East,88,0.0,-999.0,70,-99.99,,,0.00,weatherlink.com 1.10,2013-02-21 21:33:00,
2013-02-21 15:49:00,29.1,20.0,29.80,East,88,0.0,-999.0,70,-99.99,,,0.00,weatherlink.com 1.10,2013-02-21 21:49:00,
2013-02-21 16:04:00,29.2,21.0,29.79,East,88,0.0,-999.0,70,-99.99,,,0.00,weatherlink.com 1.10,2013-02-21 22:04:00,
2013-02-21 16:19:00,29.3,21.0,29.80,East,88,0.0,-999.0,70,-99.99,,,0.00,weatherlink.com 1.10,2013-02-21 22:19:00,
2013-02-21 16:34:00,29.4,21.0,29.80,East,88,0.0,-999.0,70,-99.99,,,0.00,weatherlink.com 1.10,2013-02-21 22:34:00,
2013-02-21 16:49:00,29.4,21.0,29.82,East,88,0.0,-999.0,70,-99.99,,,0.00,weatherlink.com 1.10,2013-02-21 22:49:00,
2013-02-21 17:04:00,29.5,21.0,29.82,East,88,0.0,-999.0,70,-99.99,,,0.00,weatherlink.com 1.10,2013-02-21 23:04:00,
2013-02-21 17:19:00,29.6,21.0,29.83,East,88,0.0,-999.0,70,-99.99,,,0.00,weatherlink.com 1.10,2013-02-21 23:19:00,
2013-02-21 17:34:00,29.7,21.0,29.84,East,88,0.0,-999.0,70,-99.99,,,0.00,weatherlink.com 1.10,2013-02-21 23:34:00,
2013-02-21 17:49:00,29.6,21.0,29.85,East,88,0.0,-999.0,70,-99.99,,,0.00,weatherlink.com 1.10,2013-02-21 23:49:00,
2013-02-21 18:04:00,29.6,21.0,29.86,East,88,0.0,-999.0,70,-99.99,,,0.00,weatherlink.com 1.10,2013-02-22 00:04:00,
2013-02-21 18:19:00,30.1,21.0,29.87,East,88,0.0,-999.0,70,-99.99,,,0.00,weatherlink.com 1.10,2013-02-22 00:19:00,
2013-02-21 18:34:00,30.1,21.0,29.89,East,88,0.0,-999.0,70,-99.99,,,0.00,weatherlink.com 1.10,2013-02-22 00:34:00,
2013-02-21 18:49:00,30.1,21.0,29.89,East,88,0.0,-999.0,70,-99.99,,,0.00,weatherlink.com 1.10,2013-02-22 00:49:00,
2013-02-21 19:04:00,30.3,22.0,29.89,East,88,0.0,-999.0,70,-99.99,,,0.00,weatherlink.com 1.10,2013-02-22 01:04:00,
2013-02-21 19:19:00,30.6,22.0,29.88,East,88,0.0,-999.0,70,-99.99,,,0.00,weatherlink.com 1.10,2013-02-22 01:19:00,
2013-02-21 19:34:00,30.1,21.0,29.88,East,88,0.0,-999.0,70,-99.99,,,0.00,weatherlink.com 1.10,2013-02-22 01:34:00,
2013-02-21 19:49:00,31.2,22.0,29.87,East,88,0.0,-999.0,70,-99.99,,,0.00,weatherlink.com 1.10,2013-02-22 01:49:00,
2013-02-21 20:04:00,31.9,23.0,29.88,East,88,0.0,-999.0,70,-99.99,,,0.00,weatherlink.com 1.10,2013-02-22 02:04:00,
2013-02-21 20:19:00,31.9,23.0,29.88,East,88,0.0,-999.0,70,-99.99,,,0.00,weatherlink.com 1.10,2013-02-22 02:19:00,
2013-02-21 20:34:00,31.7,23.0,29.89,East,88,0.0,-999.0,71,-99.99,,,0.00,weatherlink.com 1.10,2013-02-22 02:34:00,
2013-02-21 20:49:00,31.5,23.0,29.90,East,88,0.0,-999.0,71,-99.99,,,0.00,weatherlink.com 1.10,2013-02-22 02:49:00,
2013-02-21 21:04:00,31.6,23.0,29.90,East,88,0.0,-999.0,71,-99.99,,,0.00,weatherlink.com 1.10,2013-02-22 03:04:00,
2013-02-21 21:19:00,31.8,23.0,29.91,East,88,0.0,-999.0,71,-99.99,,,0.00,weatherlink.com 1.10,2013-02-22 03:19:00,
2013-02-21 21:34:00,31.8,23.0,29.91,East,88,0.0,-999.0,71,-99.99,,,0.00,weatherlink.com 1.10,2013-02-22 03:34:00,
2013-02-21 21:49:00,31.9,23.0,29.91,East,88,0.0,-999.0,71,-99.99,,,0.00,weatherlink.com 1.10,2013-02-22 03:49:00,
2013-02-21 22:04:00,32.0,24.0,29.91,East,88,0.0,-999.0,71,-99.99,,,0.00,weatherlink.com 1.10,2013-02-22 04:04:00,
2013-02-21 22:19:00,32.0,24.0,29.92,East,88,0.0,-999.0,71,-99.99,,,0.00,weatherlink.com 1.10,2013-02-22 04:19:00,
2013-02-21 22:34:00,32.1,24.0,29.92,East,88,0.0,-999.0,71,-99.99,,,0.00,weatherlink.com 1.10,2013-02-22 04:34:00,
2013-02-21 22:49:00,32.1,24.0,29.92,East,88,0.0,-999.0,71,-99.99,,,0.00,weatherlink.com 1.10,2013-02-22 04:49:00,
2013-02-21 23:19:00,32.1,24.0,29.93,East,88,0.0,-999.0,72,-99.99,,,0.00,weatherlink.com 1.10,2013-02-22 05:19:00,
2013-02-21 23:34:00,32.2,24.0,29.92,East,88,0.0,-999.0,72,-99.99,,,0.00,weatherlink.com 1.10,2013-02-22 05:34:00,
2013-02-21 23:49:00,32.1,24.0,29.93,East,88,0.0,-999.0,72,-99.99,,,0.00,weatherlink.com 1.10,2013-02-22 05:49:00,